• In Hungary
  • List of Countries
  • For 7 days
  • Water Temperature
  • Satellite Maps
  • Weather Map
  • News
  • Weather Widgets
  • user-avatar
    Login

    Hourly Weather Pytlowka

    Today, 25 September, Tuesday

    Time Temperature Precipitation Wind Pressure Humidity
    00:00 +3°C° 0 mm 4 mps 717 mmHg 80%
    01:00 +3°C° 0 mm 2 mps 717 mmHg 85%
    02:00 +2°C° 0 mm 3 mps 717 mmHg 85%
    03:00 +2°C° 0 mm 3 mps 718 mmHg 86%
    04:00 +2°C° 0 mm 3 mps 718 mmHg 86%
    05:00 +1°C° 0.1 mm 4 mps 718 mmHg 85%
    06:00 +1°C° 0.1 mm 4 mps 719 mmHg 84%
    07:00 +1°C° 0 mm 4 mps 720 mmHg 82%
    08:00 +3°C° 0 mm 4 mps 720 mmHg 78%
    09:00 +4°C° 0 mm 4 mps 720 mmHg 74%
    10:00 +4°C° 0 mm 4 mps 721 mmHg 71%
    11:00 +5°C° 0.1 mm 4 mps 721 mmHg 66%
    12:00 +6°C° 0.1 mm 4 mps 721 mmHg 61%
    13:00 +7°C° 0 mm 4 mps 722 mmHg 55%
    14:00 +7°C° 0.1 mm 4 mps 722 mmHg 56%
    15:00 +7°C° 0.1 mm 4 mps 722 mmHg 56%
    16:00 +7°C° 0.1 mm 4 mps 722 mmHg 57%
    17:00 +7°C° 0 mm 3 mps 722 mmHg 62%
    18:00 +5°C° 0 mm 2 mps 723 mmHg 68%
    19:00 +4°C° 0 mm 2 mps 723 mmHg 73%
    20:00 +4°C° 0 mm 2 mps 723 mmHg 75%
    21:00 +4°C° 0 mm 1 mps 724 mmHg 77%
    22:00 +4°C° 0 mm 1 mps 724 mmHg 79%
    23:00 +3°C° 0 mm 1 mps 724 mmHg 81%

    Tomorrow, 26 September, Wednesday

    Time Temperature Precipitation Wind Pressure Humidity
    00:00 +3°C° 0 mm 1 mps 725 mmHg 82%
    01:00 +3°C° 0 mm 1 mps 725 mmHg 83%
    02:00 +3°C° 0 mm 1 mps 725 mmHg 84%
    03:00 +2°C° 0 mm 1 mps 725 mmHg 85%
    04:00 +1°C° 0 mm 2 mps 725 mmHg 86%
    05:00 +2°C° 0 mm 2 mps 725 mmHg 83%
    06:00 +3°C° 0 mm 2 mps 725 mmHg 80%
    07:00 +3°C° 0 mm 2 mps 725 mmHg 77%
    08:00 +6°C° 0 mm 2 mps 725 mmHg 68%
    09:00 +8°C° 0 mm 2 mps 725 mmHg 59%
    10:00 +10°C° 0 mm 2 mps 725 mmHg 50%
    11:00 +11°C° 0 mm 3 mps 725 mmHg 47%
    12:00 +12°C° 0 mm 3 mps 724 mmHg 44%
    13:00 +12°C° 0 mm 3 mps 724 mmHg 41%
    14:00 +12°C° 0 mm 3 mps 723 mmHg 44%
    15:00 +12°C° 0 mm 3 mps 723 mmHg 46%
    16:00 +12°C° 0 mm 3 mps 722 mmHg 49%
    17:00 +11°C° 0 mm 3 mps 722 mmHg 53%
    18:00 +9°C° 0 mm 3 mps 722 mmHg 56%
    19:00 +8°C° 0 mm 3 mps 722 mmHg 60%
    20:00 +8°C° 0 mm 3 mps 721 mmHg 59%
    21:00 +8°C° 0 mm 3 mps 721 mmHg 59%
    22:00 +7°C° 0 mm 4 mps 721 mmHg 58%
    23:00 +6°C° 0 mm 4 mps 721 mmHg 58%

    Day after tomorrow, 27 September, Thursday

    Time Temperature Precipitation Wind Pressure Humidity
    00:00 +6°C° 0 mm 4 mps 721 mmHg 57%
    01:00 +5°C° 0 mm 4 mps 721 mmHg 57%
    02:00 +5°C° 0 mm 3 mps 720 mmHg 57%
    03:00 +5°C° 0 mm 3 mps 720 mmHg 57%
    04:00 +5°C° 0 mm 3 mps 720 mmHg 57%
    05:00 +5°C° 0 mm 3 mps 720 mmHg 55%
    06:00 +7°C° 0 mm 3 mps 720 mmHg 54%
    07:00 +8°C° 0 mm 3 mps 720 mmHg 52%
    08:00 +10°C° 0 mm 3 mps 720 mmHg 48%
    09:00 +12°C° 0 mm 3 mps 720 mmHg 45%
    10:00 +16°C° 0 mm 3 mps 720 mmHg 41%
    11:00 +17°C° 0 mm 3 mps 720 mmHg 42%
    12:00 +18°C° 0 mm 3 mps 720 mmHg 43%
    13:00 +19°C° 0 mm 3 mps 720 mmHg 44%
    14:00 +19°C° 0 mm 3 mps 719 mmHg 48%
    15:00 +19°C° 0 mm 2 mps 719 mmHg 51%
    16:00 +18°C° 0 mm 2 mps 718 mmHg 54%
    17:00 +16°C° 0 mm 2 mps 718 mmHg 59%
    18:00 +15°C° 0 mm 2 mps 718 mmHg 64%
    19:00 +13°C° 0 mm 2 mps 717 mmHg 68%
    20:00 +12°C° 0 mm 2 mps 717 mmHg 69%
    21:00 +12°C° 0 mm 2 mps 717 mmHg 70%
    22:00 +10°C° 0 mm 2 mps 716 mmHg 71%
    23:00 +10°C° 0 mm 2 mps 716 mmHg 71%

    28 September, Friday

    Time Temperature Precipitation Wind Pressure Humidity
    00:00 +10°C° 0 mm 2 mps 715 mmHg 70%
    01:00 +10°C° 0 mm 3 mps 715 mmHg 70%
    02:00 +10°C° 0 mm 3 mps 714 mmHg 70%
    03:00 +9°C° 0 mm 3 mps 714 mmHg 70%
    04:00 +9°C° 0 mm 3 mps 713 mmHg 70%
    05:00 +10°C° 0 mm 3 mps 713 mmHg 67%
    06:00 +10°C° 0 mm 3 mps 713 mmHg 65%
    07:00 +10°C° 0 mm 3 mps 713 mmHg 63%
    08:00 +12°C° 0 mm 3 mps 713 mmHg 56%
    09:00 +16°C° 0 mm 3 mps 713 mmHg 49%
    10:00 +18°C° 0 mm 4 mps 713 mmHg 41%
    11:00 +18°C° 0 mm 4 mps 713 mmHg 41%
    12:00 +19°C° 0 mm 4 mps 713 mmHg 40%
    13:00 +19°C° 0 mm 3 mps 713 mmHg 40%
    14:00 +19°C° 0 mm 3 mps 712 mmHg 44%
    15:00 +18°C° 0 mm 3 mps 712 mmHg 48%
    16:00 +17°C° 0 mm 3 mps 712 mmHg 53%
    17:00 +14°C° 0 mm 3 mps 712 mmHg 63%
    18:00 +13°C° 0 mm 2 mps 712 mmHg 73%
    19:00 +10°C° 0 mm 2 mps 712 mmHg 83%
    20:00 +10°C° 0 mm 2 mps 712 mmHg 84%
    21:00 +10°C° 0 mm 2 mps 712 mmHg 84%
    22:00 +11°C° 0 mm 1 mps 712 mmHg 85%
    23:00 +10°C° 0 mm 1 mps 712 mmHg 85%

    29 September, Saturday

    Time Temperature Precipitation Wind Pressure Humidity
    00:00 +9°C° 0 mm 2 mps 712 mmHg 85%
    01:00 +9°C° 0 mm 2 mps 712 mmHg 85%
    02:00 +9°C° 0.1 mm 2 mps 712 mmHg 85%
    03:00 +8°C° 0.1 mm 2 mps 712 mmHg 85%
    04:00 +8°C° 0.1 mm 2 mps 712 mmHg 85%
    05:00 +8°C° 0.3 mm 2 mps 713 mmHg 85%
    06:00 +8°C° 0.3 mm 2 mps 713 mmHg 86%
    07:00 +7°C° 0.3 mm 2 mps 713 mmHg 86%
    08:00 +8°C° 0.2 mm 2 mps 713 mmHg 83%
    09:00 +8°C° 0.2 mm 2 mps 714 mmHg 79%
    10:00 +8°C° 0.2 mm 2 mps 714 mmHg 76%
    11:00 +9°C° 0.1 mm 3 mps 714 mmHg 70%
    12:00 +10°C° 0.1 mm 3 mps 714 mmHg 65%
    13:00 +11°C° 0.1 mm 3 mps 714 mmHg 60%
    14:00 +11°C° 0.1 mm 3 mps 715 mmHg 60%
    15:00 +10°C° 0.1 mm 3 mps 715 mmHg 60%
    16:00 +10°C° 0.1 mm 3 mps 715 mmHg 59%
    17:00 +9°C° 0 mm 3 mps 715 mmHg 64%
    18:00 +8°C° 0 mm 3 mps 715 mmHg 69%
    19:00 +7°C° 0 mm 2 mps 715 mmHg 74%
    20:00 +6°C° 0 mm 2 mps 716 mmHg 76%
    21:00 +6°C° 0 mm 2 mps 716 mmHg 78%
    22:00 +5°C° 0 mm 2 mps 716 mmHg 80%
    23:00 +5°C° 0 mm 2 mps 716 mmHg 82%

    30 September, Sunday

    Time Temperature Precipitation Wind Pressure Humidity
    00:00 +4°C° 0 mm 2 mps 716 mmHg 85%
    01:00 +4°C° 0 mm 2 mps 716 mmHg 87%
    02:00 +4°C° 0 mm 2 mps 716 mmHg 88%
    03:00 +4°C° 0 mm 2 mps 716 mmHg 90%
    04:00 +3°C° 0 mm 2 mps 715 mmHg 91%
    05:00 +4°C° 0 mm 2 mps 715 mmHg 90%
    06:00 +4°C° 0 mm 2 mps 715 mmHg 89%
    07:00 +5°C° 0 mm 2 mps 715 mmHg 88%
    08:00 +7°C° 0 mm 2 mps 715 mmHg 79%
    09:00 +9°C° 0 mm 2 mps 715 mmHg 71%
    10:00 +11°C° 0 mm 3 mps 716 mmHg 62%
    11:00 +12°C° 0 mm 3 mps 715 mmHg 59%
    12:00 +14°C° 0 mm 3 mps 715 mmHg 57%
    13:00 +16°C° 0 mm 3 mps 715 mmHg 54%
    14:00 +14°C° 0 mm 3 mps 714 mmHg 57%
    15:00 +15°C° 0 mm 2 mps 714 mmHg 60%
    16:00 +15°C° 0 mm 2 mps 714 mmHg 63%
    17:00 +13°C° 0 mm 2 mps 713 mmHg 70%
    18:00 +10°C° 0 mm 2 mps 713 mmHg 77%
    19:00 +10°C° 0 mm 1 mps 713 mmHg 85%
    20:00 +9°C° 0 mm 1 mps 713 mmHg 86%
    21:00 +9°C° 0 mm 1 mps 713 mmHg 88%
    22:00 +9°C° 0 mm 1 mps 712 mmHg 89%
    23:00 +9°C° 0 mm 1 mps 712 mmHg 90%
    Show more